This is the latest recevied weather packets stored in our database for station/object KC9GSD. If no packets are shown the sender has not sent any weather packets the latest 10 day(s).
| Time | Temp. | Humidity | Pressure | Rain* | Wind** | Luminosity | Snow |
|---|---|---|---|---|---|---|---|
| 1778109646 | 18.33° C | 95% | 1011.9 hPa | 1.78 mm | - | 9 W/m² | - |
| 1778109344 | 18.33° C | 95% | 1012 hPa | 4.32 mm | - | 5 W/m² | - |
| 1778109042 | 18.33° C | 95% | 1011.8 hPa | 28.7 mm | - | 9 W/m² | - |
| 1778108738 | 18.33° C | 95% | 1011.8 hPa | 64.26 mm | - | 7 W/m² | - |
| 1778108435 | 18.33° C | 94% | 1011.8 hPa | 77.98 mm | - | 8 W/m² | - |
| 1778108132 | 18.89° C | 94% | 1011.2 hPa | 42.67 mm | - | 13 W/m² | - |
| 1778107828 | 19.44° C | 90% | 1011.1 hPa | 8.89 mm | - | 3 W/m² | - |
| 1778107525 | 20° C | 87% | 1011.4 hPa | 0 mm | - | 1 W/m² | - |
| 1778107222 | 20° C | 86% | 1011.3 hPa | 0 mm | - | 1 W/m² | - |
| 1778106918 | 22.22° C | 83% | 1010.9 hPa | 0 mm | - | 2 W/m² | - |
| 1778106615 | 22.22° C | 86% | 1010.6 hPa | 0 mm | - | 6 W/m² | - |
| 1778106312 | 22.22° C | 86% | 1010.7 hPa | 0 mm | - | 13 W/m² | - |
| 1778106008 | 22.22° C | 85% | 1010.9 hPa | 0 mm | - | 14 W/m² | - |
| 1778105705 | 22.22° C | 86% | 1011 hPa | 0 mm | - | 13 W/m² | - |
| 1778105403 | 22.22° C | 85% | 1011.1 hPa | 0 mm | - | 13 W/m² | - |
| 1778105104 | 22.22° C | 85% | 1011 hPa | 0 mm | - | 14 W/m² | - |
| 1778104800 | 22.22° C | 85% | 1011.3 hPa | 0 mm | - | 13 W/m² | - |
| 1778104497 | 22.22° C | 84% | 1011.2 hPa | 0 mm | - | 11 W/m² | - |
| 1778104192 | 22.78° C | 83% | 1011.4 hPa | 0 mm | - | 7 W/m² | - |
| 1778103890 | 22.78° C | 83% | 1011 hPa | 0 mm | - | 24 W/m² | - |
| 1778103587 | 22.78° C | 83% | 1011 hPa | 0 mm | - | 11 W/m² | - |
| 1778103285 | 22.78° C | 83% | 1010.9 hPa | 0 mm | - | 16 W/m² | - |
| 1778102982 | 22.78° C | 82% | 1011 hPa | 0 mm | - | 29 W/m² | - |
| 1778102678 | 22.78° C | 82% | 1011 hPa | 0 mm | - | 40 W/m² | - |
| 1778102378 | 22.78° C | 82% | 1011.1 hPa | 0 mm | - | 33 W/m² | - |
* Rain latest hour (hover to see other rain measurements)
** Current wind speed in m/s (hover to see current wind gust speed)